sat.trackr.live / text

‹ back to catalog

2025-274B

NORAD 66651 · 2025-274B

PAYLOAD ACTIVE UNKNOWN

§ Identity

Operator
Country
SKOR
Launch date
2025-11-26
Launch site
NSC
Launch vehicle
Mass (kg)
RCS (m²)

External: N2YO · Heavens-Above · Gunter

§ Orbital elements

Epoch: 2026-05-25T01:37:01.313184Z

Period
96.45 min
Inclination
97.7470°
Eccentricity
0.0013695
Mean motion
14.93072011 rev/d
Perigee alt
578.8 km
Apogee alt
597.9 km
Semi-major
6,966.5 km
B*
2.4749e-4
RAAN
74.5453°
Arg perigee
71.5940°
Mean anomaly
288.6767°
Rev number
2,676

§ Raw data

2025-274B1 66651U 25274B   26145.06737631  .00002525  00000+0  24749-3 0  99972 66651  97.7470  74.5453 0013695  71.5940 288.6767 14.93072011 26761

JSON: /api/v1/satellites/66651 · /tle

For live sub-satellite position, see the globe view (requires WebGL).

§ Visibility from observer

Set your observer location to see the next 7 days of passes ≥ 10°. The values pass through the URL so the page stays shareable.

No JS? Fill the form by hand. The geolocation button needs JavaScript.

§ Radio — SatNOGS DB

ModeDescriptionDownlinkUplink
FM S-band telemetry 2.249 GHz

1 transmitter · refreshed weekly from db.satnogs.org